Flag for U.S.A. Weather past 2 weeks in Roanoke, Virginia, U.S.A.

Now
74 °F

Mostly cloudy.


Feels Like: 74 °F
Forecast: 72 / 82 °F
Wind: No wind

Location: Roanoke Regional Airport

Current Time: Aug 23, 2014 at 2:39:59 AM

Latest Report: Aug 23, 2014 at 1:54 AM


Visibility: 10 mi

Pressure: 29.98 "Hg

Humidity: 82%

Dew point: 68 °F

Location of RoanokeLocation

Historic Weather in Roanoke — Graph

°F

Roanoke temperature yesterday

Maximum temperature yesterday: 81 °F (at 3:54 PM)
Minimum temperature yesterday: 70 °F (at 3:54 AM)
Average temperature yesterday: 75 °F

Past Weeks' High & Low Weather Summary

 TemperatureHumidityPressure
High88 °F (Aug 21, 3:54 PM)97% (Aug 8, 10:54 PM)30.17 "Hg (Aug 8, 10:54 PM)
Low55 °F (Aug 16, 6:54 AM)32% (Aug 15, 6:54 PM)29.78 "Hg (Aug 12, 6:54 PM)
Average71 °F79%30.01 "Hg
* Reported Aug 8 12:54 AM — Aug 23 12:54 AM, Roanoke, Weather by CustomWeather, © 2014

Note: Actual official high and low records may vary slightly from our data, if they occured in-between our weather recording intervals... More about our weather records

Advertising

Roanoke weather history for previous 24 hours

 ConditionsComfort  
Time TempWeatherWind HumidityBarometerVisibility
12:54 AM
Aug 23
74 °FOvercast.6 mph85%29.98 "Hg10 mi
11:54 PM
Aug 22
74 °FOvercast.3 mph88%29.99 "Hg10 mi
10:54 PM75 °FPassing clouds.5 mph85%29.99 "Hg10 mi
9:54 PM77 °FMostly cloudy.3 mph79%29.99 "Hg10 mi
8:54 PM78 °FMore clouds than sun.No wind82%29.97 "Hg10 mi
7:54 PM77 °FMostly cloudy.3 mph90%29.98 "Hg10 mi
6:54 PM80 °FPartly sunny.No wind71%29.96 "Hg10 mi
5:54 PM79 °FCloudy.5 mph79%29.98 "Hg10 mi
4:54 PM80 °FMostly cloudy.5 mph74%29.99 "Hg10 mi
3:54 PM81 °FBroken clouds.No wind67%29.99 "Hg10 mi
2:54 PM78 °FMostly cloudy.No wind74%30.01 "Hg10 mi
1:54 PM78 °FPartly sunny.5 mph76%30.03 "Hg10 mi
12:54 PM75 °FMore clouds than sun.5 mph85%30.04 "Hg10 mi
11:54 AM74 °FOvercast.7 mph88%30.05 "Hg10 mi
10:54 AM74 °FLight rain. More clouds than sun.5 mph85%30.05 "Hg10 mi
9:54 AM73 °FLight rain. Fog.No wind88%30.05 "Hg6 mi
8:54 AM72 °FLight rain. Partly sunny.No wind87%30.06 "Hg10 mi
7:54 AM70 °FLight rain. Partly sunny.8 mph87%30.05 "Hg10 mi
6:54 AM71 °FPartly cloudy.5 mph81%30.03 "Hg10 mi
5:54 AM71 °FPassing clouds.7 mph81%30.01 "Hg10 mi
4:54 AM70 °FPassing clouds.8 mph84%30.01 "Hg10 mi
3:54 AM70 °FPassing clouds.6 mph84%30.01 "Hg10 mi
2:54 AM71 °FPassing clouds.10 mph81%30.03 "Hg10 mi
Weather by CustomWeather, © 2014

See weather overviewHow to use our weather pages